EIN133 EIDW-KBOS

Flight info

Callsign EIN133
Flight time N/A
Altitude 36000
Route PELIG2J PELIG DCT DOGAL/M082F370 NATD NEEKO/N0466F380 N616B TOPPS DCT AJJAY OOSHN5
Aircraft A333/H-SDE3GHIJ2J3J5M1RVWXY/LB2D1

Departure

Time N/A
Airport Dublin Airport (EIDW)

Arrival

Time 2026-05-05 18:34
Airport Boston Logan International Airport (KBOS)
Time Latitude Longitude Altitude Speed Heading
2026-05-05 18:03 44.55323 -68.66551 34812 ft 446 kts 223°
2026-05-05 18:04 44.52929 -68.69317 34555 ft 447 kts 223°
2026-05-05 18:04 44.50520 -68.72099 34309 ft 448 kts 223°
2026-05-05 18:04 44.48110 -68.74877 34071 ft 449 kts 222°
2026-05-05 18:04 44.45694 -68.77660 33836 ft 450 kts 222°
2026-05-05 18:05 44.43299 -68.80415 33571 ft 451 kts 222°
2026-05-05 18:05 44.40872 -68.83205 33298 ft 451 kts 222°
2026-05-05 18:05 44.38440 -68.85996 33029 ft 452 kts 222°
2026-05-05 18:05 44.36007 -68.88787 32755 ft 452 kts 222°
2026-05-05 18:06 44.33571 -68.91578 32491 ft 453 kts 222°
2026-05-05 18:06 44.31958 -68.93424 32314 ft 453 kts 221°
2026-05-05 18:06 44.28693 -68.97159 31968 ft 454 kts 221°
2026-05-05 18:06 44.26248 -68.99952 31704 ft 454 kts 221°
2026-05-05 18:07 44.23799 -69.02746 31441 ft 455 kts 221°
2026-05-05 18:07 44.21345 -69.05541 31215 ft 455 kts 221°
2026-05-05 18:07 44.18885 -69.08341 30950 ft 456 kts 221°
2026-05-05 18:07 44.16424 -69.11138 30693 ft 457 kts 221°
2026-05-05 18:08 44.13987 -69.13905 30452 ft 458 kts 221°
2026-05-05 18:08 44.11517 -69.16706 30208 ft 458 kts 220°
2026-05-05 18:08 44.09037 -69.19515 29965 ft 458 kts 221°
2026-05-05 18:08 44.06565 -69.22313 29679 ft 457 kts 220°
2026-05-05 18:09 44.04105 -69.25093 29389 ft 454 kts 220°
2026-05-05 18:09 44.01655 -69.27859 29115 ft 453 kts 220°
2026-05-05 18:09 43.99213 -69.30613 28883 ft 451 kts 220°
2026-05-05 18:10 43.94343 -69.36096 28853 ft 449 kts 220°
2026-05-05 18:10 43.89489 -69.41550 28841 ft 449 kts 220°
2026-05-05 18:11 43.84655 -69.46971 28839 ft 450 kts 220°
2026-05-05 18:11 43.79777 -69.52429 28841 ft 451 kts 220°
2026-05-05 18:12 43.74864 -69.57844 28843 ft 451 kts 217°
2026-05-05 18:12 43.69289 -69.61838 28844 ft 455 kts 202°
2026-05-05 18:12 43.66286 -69.63240 28637 ft 456 kts 200°
2026-05-05 18:13 43.63266 -69.64588 28367 ft 457 kts 200°
2026-05-05 18:13 43.60275 -69.65919 28092 ft 456 kts 200°
2026-05-05 18:13 43.57255 -69.67268 27832 ft 455 kts 200°
2026-05-05 18:13 43.54254 -69.68613 27557 ft 452 kts 200°
2026-05-05 18:14 43.51262 -69.69955 27305 ft 451 kts 200°
2026-05-05 18:14 43.48288 -69.71291 27043 ft 449 kts 200°
2026-05-05 18:14 43.45322 -69.72622 26794 ft 448 kts 200°
2026-05-05 18:14 43.42361 -69.73950 26530 ft 446 kts 200°
2026-05-05 18:15 43.39410 -69.75274 26266 ft 444 kts 200°
2026-05-05 18:15 43.36506 -69.76574 26015 ft 442 kts 200°
2026-05-05 18:15 43.33581 -69.77884 25764 ft 441 kts 200°
2026-05-05 18:15 43.30668 -69.79186 25514 ft 440 kts 200°
2026-05-05 18:16 43.27766 -69.80482 25100 ft 436 kts 199°
2026-05-05 18:16 43.24893 -69.81763 24394 ft 434 kts 200°
2026-05-05 18:16 43.22042 -69.83032 23712 ft 423 kts 200°
2026-05-05 18:16 43.19342 -69.84232 23031 ft 406 kts 200°
2026-05-05 18:17 43.16675 -69.85418 22154 ft 399 kts 200°
2026-05-05 18:17 43.14054 -69.86602 21267 ft 395 kts 202°
2026-05-05 18:17 43.11567 -69.88125 20378 ft 388 kts 210°
2026-05-05 18:17 43.09365 -69.90194 19526 ft 381 kts 221°
2026-05-05 18:18 43.07573 -69.92823 18688 ft 375 kts 232°
2026-05-05 18:18 43.06087 -69.95731 17818 ft 370 kts 236°
2026-05-05 18:18 43.04689 -69.98656 16901 ft 365 kts 236°
2026-05-05 18:18 43.03318 -70.01554 16011 ft 360 kts 237°
2026-05-05 18:19 43.01980 -70.04383 15144 ft 355 kts 237°
2026-05-05 18:19 43.00649 -70.07191 14293 ft 348 kts 237°
2026-05-05 18:19 42.99353 -70.09920 13448 ft 336 kts 238°
2026-05-05 18:19 42.98097 -70.12562 12462 ft 328 kts 237°
2026-05-05 18:20 42.96868 -70.15147 11447 ft 321 kts 237°
2026-05-05 18:20 42.95660 -70.17682 10461 ft 315 kts 237°
2026-05-05 18:20 42.94477 -70.20163 9578 ft 308 kts 237°
2026-05-05 18:20 42.93337 -70.22553 8987 ft 292 kts 237°
2026-05-05 18:21 42.92272 -70.24780 8467 ft 277 kts 237°
2026-05-05 18:21 42.91245 -70.26931 7965 ft 264 kts 237°
2026-05-05 18:21 42.90264 -70.28981 7656 ft 256 kts 237°
2026-05-05 18:21 42.89290 -70.31018 7401 ft 255 kts 237°
2026-05-05 18:22 42.88325 -70.33037 7143 ft 253 kts 236°
2026-05-05 18:22 42.87366 -70.35038 6888 ft 251 kts 236°
2026-05-05 18:22 42.86406 -70.37038 6641 ft 259 kts 236°
2026-05-05 18:22 42.85378 -70.39177 6405 ft 277 kts 236°
2026-05-05 18:23 42.84313 -70.41391 6183 ft 280 kts 236°
2026-05-05 18:23 42.83243 -70.43612 5929 ft 280 kts 236°
2026-05-05 18:23 42.82191 -70.45798 5668 ft 279 kts 236°
2026-05-05 18:23 42.81122 -70.48017 5424 ft 279 kts 236°
2026-05-05 18:24 42.80061 -70.50219 5172 ft 277 kts 236°
2026-05-05 18:24 42.79007 -70.52405 4926 ft 276 kts 236°
2026-05-05 18:24 42.77952 -70.54592 4691 ft 276 kts 236°
2026-05-05 18:24 42.76896 -70.56779 4466 ft 278 kts 236°
2026-05-05 18:25 42.75779 -70.59090 4317 ft 305 kts 236°
2026-05-05 18:25 42.74994 -70.60713 4204 ft 314 kts 236°
2026-05-05 18:25 42.73380 -70.64049 4034 ft 315 kts 236°
2026-05-05 18:25 42.72175 -70.66539 3973 ft 314 kts 236°
2026-05-05 18:26 42.70973 -70.69019 3970 ft 314 kts 236°
2026-05-05 18:26 42.69767 -70.71503 3973 ft 315 kts 236°
2026-05-05 18:26 42.68556 -70.73975 3971 ft 314 kts 234°
2026-05-05 18:26 42.67215 -70.76256 3971 ft 313 kts 229°
2026-05-05 18:27 42.65786 -70.78500 3975 ft 314 kts 229°
2026-05-05 18:27 42.64371 -70.80696 3973 ft 299 kts 229°
2026-05-05 18:27 42.63055 -70.82745 3977 ft 278 kts 229°
2026-05-05 18:27 42.61823 -70.84664 3970 ft 260 kts 229°
2026-05-05 18:28 42.59595 -70.88155 3967 ft 230 kts 229°
2026-05-05 18:28 42.58457 -70.89562 3975 ft 214 kts 215°
2026-05-05 18:28 42.57192 -70.90464 3983 ft 198 kts 206°
2026-05-05 18:29 42.55939 -70.91090 3868 ft 188 kts 202°
2026-05-05 18:29 42.54739 -70.91647 3646 ft 179 kts 203°
2026-05-05 18:29 42.53601 -70.92207 3360 ft 169 kts 203°
2026-05-05 18:29 42.52530 -70.92735 3108 ft 159 kts 202°
2026-05-05 18:30 42.51539 -70.93213 2899 ft 144 kts 202°
2026-05-05 18:30 42.50634 -70.93652 2709 ft 133 kts 201°
2026-05-05 18:30 42.49721 -70.94100 2553 ft 146 kts 201°
2026-05-05 18:30 42.48747 -70.94574 2365 ft 150 kts 202°
2026-05-05 18:31 42.47752 -70.95059 2164 ft 153 kts 201°
2026-05-05 18:31 42.46744 -70.95543 1976 ft 153 kts 201°
2026-05-05 18:31 42.45750 -70.96027 1776 ft 151 kts 202°
2026-05-05 18:31 42.44784 -70.96495 1585 ft 147 kts 201°
2026-05-05 18:32 42.43836 -70.96955 1378 ft 142 kts 201°
2026-05-05 18:32 42.42935 -70.97391 1190 ft 134 kts 200°
2026-05-05 18:32 42.42070 -70.97811 1012 ft 131 kts 200°
2026-05-05 18:32 42.41211 -70.98227 837 ft 130 kts 199°
2026-05-05 18:33 42.40373 -70.98634 680 ft 130 kts 199°
2026-05-05 18:33 42.39512 -70.99052 518 ft 131 kts 196°
2026-05-05 18:33 42.38671 -70.99457 336 ft 126 kts 197°
2026-05-05 18:33 42.37837 -70.99862 164 ft 125 kts 199°
2026-05-05 18:34 42.37045 -71.00246 55 ft 114 kts 198°
2026-05-05 18:34 42.36373 -71.00571 29 ft 83 kts 199°
2026-05-05 18:34 42.36029 -71.00746 31 ft 13 kts 218°
2026-05-05 18:34 42.35994 -71.00794 31 ft 7 kts 230°
2026-05-05 18:35 42.35959 -71.00851 30 ft 9 kts 229°
2026-05-05 18:35 42.35915 -71.00919 29 ft 10 kts 228°
2026-05-05 18:35 42.35868 -71.00992 29 ft 10 kts 232°
2026-05-05 18:35 42.35837 -71.01092 29 ft 14 kts 263°
2026-05-05 18:36 42.35850 -71.01259 29 ft 22 kts 276°
2026-05-05 18:36 42.35872 -71.01489 29 ft 26 kts 280°
2026-05-05 18:36 42.35906 -71.01616 29 ft 11 kts 322°
2026-05-05 18:36 42.35968 -71.01604 29 ft 9 kts 15°
2026-05-05 18:37 42.36034 -71.01577 29 ft 10 kts 18°
2026-05-05 18:37 42.36105 -71.01545 29 ft 11 kts 21°
2026-05-05 18:37 42.36180 -71.01507 29 ft 9 kts 12°
2026-05-05 18:37 42.36204 -71.01515 29 ft 1 kts 333°
2026-05-05 18:38 42.36227 -71.01560 29 ft 7 kts 290°
2026-05-05 18:38 42.36236 -71.01593 29 ft 1 kts 291°
2026-05-05 18:38 42.36239 -71.01606 29 ft 0 kts 288°
2026-05-05 18:38 42.36241 -71.01622 29 ft 0 kts 276°
2026-05-05 18:39 42.36238 -71.01630 29 ft 2 kts 249°
2026-05-05 18:39 42.36223 -71.01648 29 ft 3 kts 220°
2026-05-05 18:39 42.36213 -71.01665 29 ft 0 kts 230°